When you browse on this site, cookies collect data to enhance your experience and personalize the content and advertising you see.
Visit our Privacy Policy to learn more. By continuing to use the site, you agree to this use of cookies and data.
  • en Belgique
  • Liste des pays
  • À 7 jours
  • Température de l'eau
  • Carte satellitaire
  • Carte météo
  • Widgets météo
  • user-avatar
    Se connecter

    Météo par heure à Shkodёr

    Ce jour, 20 Janvier, Dimanche

    Heure Température Précipitation Vent Pression Humidité
    00:00 +6°C° 0.4 mm 2 m/s 737 mmHg 82%
    01:00 +6°C° 0 mm 2 m/s 737 mmHg 84%
    02:00 +6°C° 1.5 mm 2 m/s 737 mmHg 85%
    03:00 +7°C° 1.5 mm 1 m/s 737 mmHg 87%
    04:00 +6°C° 1.5 mm 1 m/s 737 mmHg 89%
    05:00 +6°C° 2.4 mm 1 m/s 737 mmHg 89%
    06:00 +6°C° 2.4 mm 1 m/s 737 mmHg 90%
    07:00 +6°C° 0 mm 1 m/s 737 mmHg 92%
    08:00 +7°C° 0.2 mm 1 m/s 737 mmHg 92%
    09:00 +7°C° 0.2 mm 1 m/s 737 mmHg 91%
    10:00 +8°C° 0.2 mm 1 m/s 737 mmHg 91%
    11:00 +9°C° 0.1 mm 1 m/s 737 mmHg 89%
    12:00 +9°C° 0.1 mm 1 m/s 737 mmHg 87%
    13:00 +10°C° 0.1 mm 1 m/s 737 mmHg 85%
    14:00 +10°C° 0 mm 1 m/s 737 mmHg 86%
    15:00 +9°C° 0 mm 1 m/s 737 mmHg 87%
    16:00 +9°C° 0 mm 1 m/s 737 mmHg 87%
    17:00 +8°C° 0 mm 1 m/s 737 mmHg 87%
    18:00 +7°C° 0 mm 1 m/s 738 mmHg 87%
    19:00 +7°C° 0 mm 1 m/s 738 mmHg 88%
    20:00 +5°C° 0 mm 2 m/s 738 mmHg 86%
    21:00 +5°C° 0 mm 2 m/s 738 mmHg 85%
    22:00 +5°C° 0 mm 2 m/s 739 mmHg 83%
    23:00 +5°C° 0 mm 2 m/s 739 mmHg 82%

    Demain, 21 Janvier, Lundi

    Heure Température Précipitation Vent Pression Humidité
    00:00 +5°C° 0 mm 2 m/s 739 mmHg 81%
    01:00 +5°C° 0 mm 2 m/s 739 mmHg 80%
    02:00 +5°C° 0 mm 2 m/s 739 mmHg 79%
    03:00 +4°C° 0 mm 2 m/s 739 mmHg 79%
    04:00 +4°C° 0 mm 2 m/s 739 mmHg 78%
    05:00 +4°C° 0 mm 2 m/s 739 mmHg 78%
    06:00 +4°C° 0 mm 2 m/s 739 mmHg 78%
    07:00 +4°C° 0 mm 2 m/s 739 mmHg 78%
    08:00 +5°C° 0 mm 2 m/s 739 mmHg 77%
    09:00 +7°C° 0 mm 2 m/s 739 mmHg 75%
    10:00 +8°C° 0 mm 2 m/s 740 mmHg 73%
    11:00 +9°C° 0 mm 2 m/s 739 mmHg 71%
    12:00 +9°C° 0 mm 2 m/s 739 mmHg 69%
    13:00 +11°C° 0 mm 1 m/s 739 mmHg 66%
    14:00 +10°C° 0 mm 1 m/s 739 mmHg 70%
    15:00 +9°C° 0 mm 2 m/s 739 mmHg 74%
    16:00 +8°C° 0 mm 2 m/s 739 mmHg 77%
    17:00 +7°C° 0 mm 2 m/s 739 mmHg 78%
    18:00 +6°C° 0 mm 2 m/s 739 mmHg 80%
    19:00 +4°C° 0 mm 3 m/s 739 mmHg 81%
    20:00 +4°C° 0 mm 3 m/s 739 mmHg 80%
    21:00 +4°C° 0 mm 3 m/s 739 mmHg 79%
    22:00 +4°C° 0 mm 3 m/s 739 mmHg 78%
    23:00 +4°C° 0.1 mm 3 m/s 739 mmHg 79%

    Après-demain, 22 Janvier, Mardi

    Heure Température Précipitation Vent Pression Humidité
    00:00 +4°C° 0.1 mm 3 m/s 739 mmHg 79%
    01:00 +4°C° 0.1 mm 3 m/s 738 mmHg 79%
    02:00 +4°C° 0.1 mm 3 m/s 738 mmHg 79%
    03:00 +4°C° 0.1 mm 3 m/s 737 mmHg 79%
    04:00 +4°C° 0.1 mm 3 m/s 737 mmHg 79%
    05:00 +4°C° 0.2 mm 3 m/s 737 mmHg 79%
    06:00 +4°C° 0.2 mm 3 m/s 736 mmHg 79%
    07:00 +4°C° 0.2 mm 3 m/s 736 mmHg 79%
    08:00 +4°C° 0.4 mm 3 m/s 736 mmHg 79%
    09:00 +5°C° 0.4 mm 3 m/s 736 mmHg 79%
    10:00 +5°C° 0.4 mm 3 m/s 735 mmHg 79%
    11:00 +5°C° 0.9 mm 3 m/s 734 mmHg 81%
    12:00 +7°C° 0.9 mm 2 m/s 734 mmHg 83%
    13:00 +7°C° 0.9 mm 2 m/s 733 mmHg 85%
    14:00 +7°C° 0.6 mm 2 m/s 732 mmHg 84%
    15:00 +7°C° 0.6 mm 2 m/s 732 mmHg 83%
    16:00 +7°C° 0.6 mm 2 m/s 731 mmHg 83%
    17:00 +7°C° 0.5 mm 2 m/s 731 mmHg 84%
    18:00 +7°C° 0.5 mm 2 m/s 731 mmHg 84%
    19:00 +6°C° 0.5 mm 2 m/s 730 mmHg 85%
    20:00 +6°C° 0.1 mm 2 m/s 730 mmHg 84%
    21:00 +6°C° 0.1 mm 2 m/s 730 mmHg 82%
    22:00 +6°C° 0.1 mm 2 m/s 729 mmHg 81%
    23:00 +6°C° 0.3 mm 2 m/s 729 mmHg 81%

    23 Janvier, Mercredi

    Heure Température Précipitation Vent Pression Humidité
    00:00 +6°C° 0.3 mm 2 m/s 728 mmHg 81%
    01:00 +6°C° 0.3 mm 2 m/s 727 mmHg 81%
    02:00 +6°C° 0.2 mm 2 m/s 727 mmHg 81%
    03:00 +6°C° 0.2 mm 2 m/s 726 mmHg 81%
    04:00 +6°C° 0.2 mm 2 m/s 726 mmHg 81%
    05:00 +5°C° 3.9 mm 3 m/s 726 mmHg 85%
    06:00 +5°C° 3.9 mm 3 m/s 726 mmHg 89%
    07:00 +5°C° 3.9 mm 4 m/s 726 mmHg 94%
    08:00 +6°C° 1.7 mm 4 m/s 727 mmHg 94%
    09:00 +6°C° 1.7 mm 4 m/s 727 mmHg 94%
    10:00 +6°C° 1.7 mm 4 m/s 727 mmHg 94%
    11:00 +7°C° 1 mm 3 m/s 728 mmHg 91%
    12:00 +7°C° 1 mm 3 m/s 728 mmHg 89%
    13:00 +8°C° 1 mm 3 m/s 728 mmHg 86%
    14:00 +7°C° 0.8 mm 3 m/s 728 mmHg 86%
    15:00 +7°C° 0.8 mm 3 m/s 728 mmHg 86%
    16:00 +7°C° 0.8 mm 3 m/s 728 mmHg 85%
    17:00 +7°C° 0.3 mm 2 m/s 728 mmHg 85%
    18:00 +6°C° 0.3 mm 2 m/s 729 mmHg 85%
    19:00 +6°C° 0.3 mm 2 m/s 729 mmHg 85%
    20:00 +5°C° 0 mm 2 m/s 729 mmHg 84%
    21:00 +5°C° 0 mm 2 m/s 729 mmHg 82%
    22:00 +5°C° 0 mm 2 m/s 729 mmHg 81%
    23:00 +3°C° 0 mm 3 m/s 728 mmHg 79%

    24 Janvier, Jeudi

    Heure Température Précipitation Vent Pression Humidité
    00:00 +3°C° 0 mm 3 m/s 728 mmHg 77%
    01:00 +3°C° 0 mm 3 m/s 728 mmHg 76%
    02:00 +3°C° 0 mm 3 m/s 727 mmHg 73%
    03:00 +3°C° 0 mm 4 m/s 726 mmHg 71%
    04:00 +3°C° 0 mm 4 m/s 726 mmHg 69%
    05:00 +3°C° 0 mm 4 m/s 725 mmHg 68%
    06:00 +3°C° 0 mm 4 m/s 725 mmHg 67%
    07:00 +2°C° 0 mm 5 m/s 725 mmHg 66%
    08:00 +3°C° 0.1 mm 5 m/s 725 mmHg 69%
    09:00 +5°C° 0.1 mm 5 m/s 724 mmHg 72%
    10:00 +6°C° 0.1 mm 5 m/s 724 mmHg 75%
    11:00 +6°C° 0.3 mm 4 m/s 724 mmHg 77%
    12:00 +6°C° 0.3 mm 4 m/s 724 mmHg 79%
    13:00 +7°C° 0.3 mm 3 m/s 723 mmHg 81%
    14:00 +7°C° 0.4 mm 3 m/s 723 mmHg 81%
    15:00 +7°C° 0.4 mm 2 m/s 723 mmHg 82%
    16:00 +7°C° 0.4 mm 2 m/s 722 mmHg 83%
    17:00 +5°C° 0.6 mm 3 m/s 722 mmHg 83%
    18:00 +5°C° 0.6 mm 3 m/s 722 mmHg 83%
    19:00 +5°C° 0.6 mm 3 m/s 722 mmHg 83%
    20:00 +5°C° 0.6 mm 3 m/s 722 mmHg 83%
    21:00 +5°C° 0.6 mm 3 m/s 722 mmHg 83%
    22:00 +5°C° 0.6 mm 3 m/s 722 mmHg 83%
    23:00 +5°C° 0.4 mm 3 m/s 722 mmHg 83%

    25 Janvier, Vendredi

    Heure Température Précipitation Vent Pression Humidité
    00:00 +4°C° 0.4 mm 3 m/s 722 mmHg 83%
    01:00 +4°C° 0.4 mm 3 m/s 722 mmHg 82%
    02:00 +4°C° 0.8 mm 3 m/s 722 mmHg 84%
    03:00 +5°C° 0.8 mm 2 m/s 722 mmHg 85%
    04:00 +5°C° 0.8 mm 2 m/s 722 mmHg 86%
    05:00 +5°C° 0.9 mm 2 m/s 722 mmHg 86%
    06:00 +5°C° 0.9 mm 2 m/s 722 mmHg 85%
    07:00 +4°C° 0.9 mm 3 m/s 722 mmHg 85%
    08:00 +5°C° 0.3 mm 2 m/s 723 mmHg 85%
    09:00 +6°C° 0.3 mm 2 m/s 723 mmHg 84%
    10:00 +6°C° 0.3 mm 2 m/s 723 mmHg 83%
    11:00 +7°C° 0 mm 2 m/s 723 mmHg 81%
    12:00 +7°C° 0 mm 2 m/s 723 mmHg 79%
    13:00 +8°C° 0 mm 3 m/s 723 mmHg 77%
    14:00 +8°C° 0 mm 2 m/s 724 mmHg 77%
    15:00 +7°C° 0 mm 2 m/s 724 mmHg 78%
    16:00 +7°C° 0 mm 2 m/s 724 mmHg 79%
    17:00 +7°C° 0 mm 2 m/s 725 mmHg 79%
    18:00 +5°C° 0 mm 3 m/s 725 mmHg 79%
    19:00 +4°C° 0 mm 3 m/s 726 mmHg 79%
    20:00 +4°C° 0 mm 3 m/s 726 mmHg 79%
    21:00 +4°C° 0 mm 3 m/s 727 mmHg 78%
    22:00 +4°C° 0 mm 3 m/s 728 mmHg 78%
    23:00 +4°C° 0 mm 3 m/s 728 mmHg 78%
    Voir plus